Ephrata, WA
on Saturday, February 23, 2013

Saturday
Previous Day Next Day
Daily Summary
 ActualAverageRecord
Temperature
Mean Temperature °F 36°F  
Max Temperature 53°F 45°F 62°F (1968)
Min Temperature 25°F 27°F 16°F (1969)
Degree Days
Heating Degree Days 26 29  
Month to date heating degree days 663 724  
Since 1 July heating degree days 4099 4432  
Cooling Degree Days 0 0  
Month to date cooling degree days 0 0  
Year to date cooling degree days 0 0  
Moisture
Dew Point 21°F   
Average Humidity 52    
Maximum Humidity 75    
Minimum Humidity 28    
Precipitation
Precipitation 0.00 in 0.03 in 0.31 in (1968)
Month to date precipitation T 0.60  
Year to date precipitation 0.19 1.51  
Wind
Wind Speed 10 mph   
Max Wind Speed 30 mph   
Max Gust Speed 36 mph   
Visibility 10 miles   
Events     

Key: T is trace of precipitation, MM is missing value
Source: NWS Daily Summary
Time(PST)TemperatureDew PointHumidity Pressure Visibility Wind DirectionWind SpeedGust SpeedPrecipitationEvents Conditions
12:53 AM 35.1°F 21.0°F 57% 29.78 in 10.0 miles SSE 9.2 mph - N/A   Clear
1:53 AM 33.1°F 21.0°F 61% 29.81 in 10.0 miles Calm Calm - N/A   Clear
2:53 AM 30.0°F 19.9°F 66% 29.82 in 10.0 miles SE 9.2 mph - N/A   Clear
3:53 AM 30.0°F 19.9°F 66% 29.83 in 10.0 miles SSW 11.5 mph - N/A   Clear
4:53 AM 27.0°F 19.9°F 75% 29.85 in 10.0 miles South 4.6 mph - N/A   Clear
5:53 AM 26.1°F 19.9°F 78% 29.88 in 10.0 miles SSW 4.6 mph - N/A   Clear
6:53 AM 26.1°F 19.9°F 78% 29.90 in 10.0 miles SW 8.1 mph - N/A   Clear
7:53 AM 30.9°F 23.0°F 72% 29.94 in 10.0 miles Calm Calm - N/A   Clear
8:53 AM 36.0°F 26.1°F 67% 29.96 in 10.0 miles SW 8.1 mph - N/A   Clear
9:53 AM 41.0°F 24.1°F 51% 29.99 in 10.0 miles SSW 6.9 mph - N/A   Clear
10:53 AM 45.0°F 24.1°F 44% 30.00 in 10.0 miles SSE 5.8 mph - N/A   Clear
11:53 AM 48.9°F 24.1°F 38% 30.01 in 10.0 miles NE 5.8 mph - N/A   Clear
12:18 PM 51.8°F 21.2°F 30% 29.99 in 10.0 miles NNW 18.4 mph - N/A   Clear
12:53 PM 53.1°F 21.9°F 30% 30.01 in 10.0 miles WNW 15.0 mph 24.2 mph N/A   Clear
1:53 PM 51.1°F 21.0°F 31% 30.03 in 10.0 miles WNW 20.7 mph 28.8 mph N/A   Clear
2:53 PM 51.1°F 19.0°F 28% 30.05 in 10.0 miles WNW 21.9 mph 33.4 mph N/A   Clear
3:53 PM 48.9°F 19.0°F 31% 30.09 in 10.0 miles NW 26.5 mph 33.4 mph N/A   Clear
4:53 PM 46.0°F 21.9°F 39% 30.12 in 10.0 miles WNW 11.5 mph - N/A   Clear
5:53 PM 42.1°F 21.9°F 45% 30.14 in 10.0 miles WNW 10.4 mph - N/A   Clear
6:53 PM 42.1°F 21.9°F 45% 30.18 in 10.0 miles WNW 12.7 mph 21.9 mph N/A   Clear
7:53 PM 42.1°F 19.9°F 41% 30.19 in 10.0 miles WNW 16.1 mph 24.2 mph N/A   Clear
8:53 PM 42.1°F 18.0°F 38% 30.20 in 10.0 miles NW 21.9 mph 27.6 mph N/A   Clear
9:53 PM 37.0°F 19.9°F 50% 30.23 in 10.0 miles Variable 4.6 mph - N/A   Clear
10:53 PM 39.0°F 19.9°F 46% 30.24 in 10.0 miles West 6.9 mph - N/A   Clear
11:53 PM 37.9°F 19.9°F 48% 30.24 in 10.0 miles Variable 3.5 mph - N/A   Clear
Moon Phase
Feb. 23 Feb. 25 Mar. 04 Mar. 11 Mar. 19
Sunrise:06:48 AM (PST) Moon Rise:03:46 PM (PST)2/23
Sunset:05:34 PM (PST) Moon Set:05:19 AM (PST)2/23

Copyright © 2014 The Weather Underground, Inc.